Weather History for KMNN - September, 2013

Change the Weather History Date:

Friday, September 13, 2013

  Actual Average (KMFD) Record (KMFD)
Temperature  
Mean Temperature 54 °F 64 °F  
Max Temperature 62 °F 75 °F 91 °F (1939)
Min Temperature 46 °F 54 °F 36 °F (1940)
Degree Days  
Heating Degree Days 10 3  
Month to date heating degree days 26  
Since 1 July heating degree days 51  
Cooling Degree Days 0 2  
Month to date cooling degree days 40  
Year to date cooling degree days 602  
Growing Degree Days 4 (Base 50)    
Moisture  
Dew Point 48 °F    
Average Humidity 77    
Maximum Humidity 97    
Minimum Humidity 57    
Precipitation  
Precipitation 0.00 in 0.12 in - ()
Month to date precipitation 1.50  
Year to date precipitation 32.33  
Snow  
Snow 0.00 in 0.00 in - ()
Month to date snowfall 0.0  
Since 1 July snowfall 0.0  
Since 1 September snowfall 0.0  
Snow Depth -    
Sea Level Pressure  
Sea Level Pressure 30.02 in    
Wind  
Wind Speed 10 mph (NNW)    
Max Wind Speed 17 mph    
Max Gust Speed 23 mph    
Visibility 10 miles    
Events      
T = Trace of Precipitation, MM = Missing Value Source: NWS Daily Summary

Daily Weather History Graph

Daily Weather History Graph

Search for Another Location

Airport or City:

Trip Planner

Search our weather history database for the weather conditions in past years. The results will help you decide how hot, cold, wet, or windy it might be!

Date:

Astronomy

Sep. 13, 2013 Rise Set
Actual Time 7:11 AM EDT 7:44 PM EDT
Civil Twilight 6:43 AM EDT 8:11 PM EDT
Nautical Twilight 6:11 AM EDT 8:43 PM EDT
Astronomical Twilight 5:37 AM EDT 9:17 PM EDT
Moon 3:34 PM EDT (9/13) 12:38 AM EDT (9/13)
Length of Visible Light 13h 27m
Length of Day
12h 32m
First Quarter, 61% of the Moon is Illuminated
Sep 13
First Quarter
Sep 19
Full
Sep 26
Last Quarter
Oct 4
New
Oct 11
First Quarter

Hourly Weather History & Observations

Time (EDT) Temp. Dew Point Humidity Pressure Visibility Wind Dir Wind Speed Gust Speed Precip Events Conditions
12:53 AM 57.9 °F 57.0 °F 97% 29.94 in 8.0 mi NNW 5.8 mph - N/A   Scattered Clouds
1:36 AM 59.0 °F 57.2 °F 94% 29.94 in 7.0 mi NNW 10.4 mph - N/A   Overcast
1:51 AM 57.2 °F 55.4 °F 94% 29.95 in 10.0 mi NNW 12.7 mph 18.4 mph N/A   Overcast
1:53 AM 57.9 °F 55.0 °F 90% 29.94 in 10.0 mi NNW 13.8 mph 18.4 mph N/A   Overcast
2:53 AM 55.9 °F 52.0 °F 87% 29.95 in 10.0 mi NNW 9.2 mph - N/A   Clear
3:53 AM 54.0 °F 50.0 °F 86% 29.96 in 10.0 mi NNW 8.1 mph - N/A   Clear
4:53 AM 52.0 °F 48.9 °F 89% 29.97 in 10.0 mi NNW 9.2 mph - N/A   Clear
5:53 AM 51.1 °F 48.0 °F 89% 29.98 in 10.0 mi NW 8.1 mph - N/A   Clear
6:53 AM 50.0 °F 46.0 °F 86% 29.99 in 10.0 mi NNW 8.1 mph - N/A   Clear
7:53 AM 48.9 °F 46.9 °F 93% 30.01 in 10.0 mi NW 5.8 mph - N/A   Overcast
8:53 AM 52.0 °F 46.9 °F 83% 30.01 in 10.0 mi NNW 12.7 mph - N/A   Overcast
9:53 AM 55.9 °F 48.0 °F 75% 30.02 in 10.0 mi North 15.0 mph - N/A   Clear
10:53 AM 57.0 °F 46.9 °F 69% 30.04 in 10.0 mi NNW 11.5 mph 19.6 mph N/A   Scattered Clouds
11:50 AM 59.0 °F 46.4 °F 63% 30.04 in 10.0 mi NNW 15.0 mph - N/A   Mostly Cloudy
11:53 AM 57.9 °F 48.0 °F 70% 30.04 in 10.0 mi NNW 12.7 mph - N/A   Mostly Cloudy
12:20 PM 60.8 °F 48.2 °F 63% 30.04 in 10.0 mi NNW 17.3 mph 23.0 mph N/A   Overcast
12:53 PM 59.0 °F 48.0 °F 67% 30.05 in 10.0 mi North 13.8 mph - N/A   Overcast
1:53 PM 61.0 °F 46.9 °F 60% 30.04 in 10.0 mi North 16.1 mph - N/A   Overcast
2:53 PM 61.0 °F 46.0 °F 58% 30.04 in 10.0 mi North 13.8 mph - N/A   Overcast
3:51 PM 59.0 °F 46.4 °F 63% 30.03 in 10.0 mi North 15.0 mph - N/A   Overcast
3:53 PM 60.1 °F 46.0 °F 60% 30.04 in 10.0 mi North 13.8 mph - N/A   Overcast
4:53 PM 60.1 °F 45.0 °F 57% 30.04 in 10.0 mi North 16.1 mph - N/A   Overcast
5:53 PM 59.0 °F 46.0 °F 62% 30.05 in 10.0 mi North 11.5 mph - N/A   Overcast
6:53 PM 57.0 °F 46.0 °F 67% 30.07 in 10.0 mi North 8.1 mph - N/A   Overcast
7:53 PM 54.0 °F 45.0 °F 72% 30.09 in 10.0 mi North 8.1 mph - N/A   Clear
8:53 PM 51.1 °F 45.0 °F 80% 30.10 in 10.0 mi North 5.8 mph - N/A   Clear
9:53 PM 48.9 °F 45.0 °F 86% 30.11 in 10.0 mi North 6.9 mph - N/A   Clear
10:53 PM 48.0 °F 45.0 °F 89% 30.12 in 10.0 mi North 4.6 mph - N/A   Partly Cloudy
11:53 PM 46.9 °F 44.1 °F 90% 30.12 in 10.0 mi North 4.6 mph - N/A   Clear